Tracking 35331 objects as of 16-Sep-2026
HD Live streaming from Space Station
objects crossing your sky now

COSMOS 1644 DEB


COSMOS 1644 DEB is no longer on orbit


NORAD ID: 15657
Int'l Code: 1985-027M
Launch date: April 3, 1985
Source: Commonwealth of Independent States (former USSR) (CIS)
Launch site: TYURATAM MISSILE AND SPACE COMPLEX (TTMTR)
Decay date: 1985-08-07

Note: This is SATELLITE DEBRIS
Your satellite tracking list
Your tracking list is empty




NASA's NSSDC Master Catalog

Two Line Element Set (TLE):
1 15657U 85027  M 85218.75075269  .14039342 +16038-4 +15096-2 0  9992
2 15657 070.3235 014.6298 0015706 298.7478 061.8124 16.36769326019663
Source of the keplerian elements: AFSPC